Retour au catalogue

COSMOS 2366

ActifMilitairePO
NORAD 25892·PAYLOAD·🇷🇺 Russia

Lancé Aug 26, 1999 depuis Plesetsk Cosmodrome

Loading…

Prochains Passages (prochaines 24 heures)

TLE

FraisSource: Space-Track

Époque: Sep 14, 2026, 08:52 UTC

1 25892U 99045A   26257.37013524  .00000034  00000-0  19146-4 0  9992
2 25892  82.9268  58.0520 0032869 108.9902 269.6317 13.74698387357207

Suivez COSMOS 2366 en temps réel avec AllMySat

Download on the App Store